Time,TemperatureF,DewpointF,PressureIn,WindDirection,WindDirectionDegrees,WindSpeedMPH,WindSpeedGustMPH,Humidity,HourlyPrecipIn,Conditions,Clouds,dailyrainin,SoftwareType,DateUTC
2013-04-16 00:00:00,35.6,27.2,29.84,NNW,338,3.4,6.5,71,0.00,,,0.00,WUHU216HW,2013-04-16 05:00:00,
2013-04-16 00:05:00,35.6,26.8,29.84,SW,225,2.0,5.6,70,0.00,,,0.00,WUHU216HW,2013-04-16 05:05:00,
2013-04-16 00:10:00,35.6,26.8,29.84,NNW,338,1.1,7.6,70,0.00,,,0.00,WUHU216HW,2013-04-16 05:10:00,
2013-04-16 00:15:00,35.6,26.8,29.84,South,180,2.2,7.6,70,0.00,,,0.00,WUHU216HW,2013-04-16 05:15:00,
2013-04-16 00:20:00,35.5,26.6,29.84,East,90,4.0,6.0,70,0.00,,,0.00,WUHU216HW,2013-04-16 05:20:00,
2013-04-16 00:25:00,35.3,26.5,29.84,West,270,3.4,5.1,70,0.00,,,0.00,WUHU216HW,2013-04-16 05:25:00,
2013-04-16 00:30:00,35.3,26.8,29.84,SW,225,2.9,6.9,71,0.00,,,0.00,WUHU216HW,2013-04-16 05:30:00,
2013-04-16 00:35:00,35.3,26.8,29.84,NW,315,1.1,6.9,71,0.00,,,0.00,WUHU216HW,2013-04-16 05:35:00,
2013-04-16 00:40:00,35.1,26.7,29.84,SE,135,1.8,6.9,71,0.00,,,0.00,WUHU216HW,2013-04-16 05:40:00,
2013-04-16 00:45:00,34.9,26.5,29.85,WNW,293,2.7,2.7,71,0.00,,,0.00,WUHU216HW,2013-04-16 05:45:00,
2013-04-16 00:50:00,34.7,26.3,29.84,NW,315,1.1,2.7,71,0.00,,,0.00,WUHU216HW,2013-04-16 05:50:00,
2013-04-16 00:55:00,34.7,26.6,29.85,NNW,338,2.2,4.0,72,0.00,,,0.00,WUHU216HW,2013-04-16 05:55:00,
2013-04-16 01:00:00,34.6,26.4,29.85,NW,315,1.1,4.0,72,0.00,,,0.00,WUHU216HW,2013-04-16 06:00:00,
2013-04-16 01:05:00,34.6,26.7,29.85,NNW,338,2.7,3.4,73,0.00,,,0.00,WUHU216HW,2013-04-16 06:05:00,
2013-04-16 01:10:00,34.4,26.2,29.84,West,270,0.2,2.7,72,0.00,,,0.00,WUHU216HW,2013-04-16 06:10:00,
2013-04-16 01:15:00,34.2,26.0,29.84,NNW,338,0.2,2.7,72,0.00,,,0.00,WUHU216HW,2013-04-16 06:15:00,
2013-04-16 01:20:00,34.2,26.0,29.83,SSW,203,0.2,1.8,72,0.00,,,0.00,WUHU216HW,2013-04-16 06:20:00,
2013-04-16 01:25:00,34.2,26.4,29.83,NNW,338,0.7,1.8,73,0.00,,,0.00,WUHU216HW,2013-04-16 06:25:00,
2013-04-16 01:30:00,34.0,26.2,29.84,WNW,293,0.2,1.8,73,0.00,,,0.00,WUHU216HW,2013-04-16 06:30:00,
2013-04-16 01:35:00,33.8,26.0,29.84,NNW,338,0.4,2.7,73,0.00,,,0.00,WUHU216HW,2013-04-16 06:35:00,
2013-04-16 01:40:00,33.7,26.2,29.84,NW,315,1.1,2.7,74,0.00,,,0.00,WUHU216HW,2013-04-16 06:40:00,
2013-04-16 01:45:00,33.7,25.8,29.83,South,180,2.5,2.7,73,0.00,,,0.00,WUHU216HW,2013-04-16 06:45:00,
2013-04-16 01:50:00,33.5,26.0,29.84,NW,315,1.8,3.4,74,0.00,,,0.00,WUHU216HW,2013-04-16 06:50:00,
2013-04-16 01:55:00,33.5,26.0,29.83,SE,135,1.1,4.3,74,0.00,,,0.00,WUHU216HW,2013-04-16 06:55:00,
2013-04-16 02:00:00,33.5,26.3,29.83,WSW,248,1.1,4.3,75,0.00,,,0.00,WUHU216HW,2013-04-16 07:00:00,
2013-04-16 02:05:00,33.5,26.3,29.83,NNW,338,2.7,3.8,75,0.00,,,0.00,WUHU216HW,2013-04-16 07:05:00,
2013-04-16 02:10:00,33.3,25.8,29.83,NW,315,0.7,2.9,74,0.00,,,0.00,WUHU216HW,2013-04-16 07:10:00,
2013-04-16 02:15:00,32.9,25.5,29.83,SSW,203,2.5,2.9,74,0.00,,,0.00,WUHU216HW,2013-04-16 07:15:00,
2013-04-16 02:20:00,33.1,26.3,29.84,WNW,293,0.9,3.8,76,0.00,,,0.00,WUHU216HW,2013-04-16 07:20:00,
2013-04-16 02:25:00,33.3,26.8,29.83,West,270,1.8,5.4,77,0.00,,,0.00,WUHU216HW,2013-04-16 07:25:00,
2013-04-16 02:30:00,33.3,26.8,29.83,North,0,0.7,5.4,77,0.00,,,0.00,WUHU216HW,2013-04-16 07:30:00,
2013-04-16 02:35:00,33.1,26.3,29.84,NE,45,1.8,4.7,76,0.00,,,0.00,WUHU216HW,2013-04-16 07:35:00,
2013-04-16 02:40:00,32.9,26.2,29.84,WNW,293,1.3,4.7,76,0.00,,,0.00,WUHU216HW,2013-04-16 07:40:00,
2013-04-16 02:45:00,32.9,26.5,29.84,NW,315,1.1,4.5,77,0.00,,,0.00,WUHU216HW,2013-04-16 07:45:00,
2013-04-16 02:50:00,32.9,26.2,29.83,West,270,1.8,3.6,76,0.00,,,0.00,WUHU216HW,2013-04-16 07:50:00,
2013-04-16 02:55:00,32.8,26.3,29.84,NNW,338,1.8,3.6,77,0.00,,,0.00,WUHU216HW,2013-04-16 07:55:00,
2013-04-16 03:00:00,32.6,25.8,29.85,West,270,0.0,3.4,76,0.00,,,0.00,WUHU216HW,2013-04-16 08:00:00,
2013-04-16 03:05:00,32.6,26.2,29.84,NW,315,0.7,2.5,77,0.00,,,0.00,WUHU216HW,2013-04-16 08:05:00,
2013-04-16 03:10:00,32.6,26.2,29.84,NW,315,1.1,2.7,77,0.00,,,0.00,WUHU216HW,2013-04-16 08:10:00,
2013-04-16 03:15:00,32.4,26.0,29.85,NNW,338,0.7,3.4,77,0.00,,,0.00,WUHU216HW,2013-04-16 08:15:00,
2013-04-16 03:20:00,32.4,26.3,29.85,West,270,0.2,3.4,78,0.00,,,0.00,WUHU216HW,2013-04-16 08:20:00,
2013-04-16 03:25:00,32.4,26.3,29.84,West,270,0.7,2.5,78,0.00,,,0.00,WUHU216HW,2013-04-16 08:25:00,
2013-04-16 03:30:00,32.2,26.2,29.84,SSW,203,0.2,2.5,78,0.00,,,0.00,WUHU216HW,2013-04-16 08:30:00,
2013-04-16 03:35:00,32.0,26.0,29.85,WNW,293,1.8,2.5,78,0.00,,,0.00,WUHU216HW,2013-04-16 08:35:00,
2013-04-16 03:40:00,31.9,25.8,29.85,West,270,0.7,2.5,78,0.00,,,0.00,WUHU216HW,2013-04-16 08:40:00,
2013-04-16 03:45:00,31.9,25.8,29.85,SE,135,0.0,1.8,78,0.00,,,0.00,WUHU216HW,2013-04-16 08:45:00,
2013-04-16 03:50:00,32.0,26.0,29.85,SE,135,1.1,1.3,78,0.00,,,0.00,WUHU216HW,2013-04-16 08:50:00,
2013-04-16 03:55:00,32.0,26.0,29.87,NW,315,0.2,1.8,78,0.00,,,0.00,WUHU216HW,2013-04-16 08:55:00,
2013-04-16 04:00:00,32.2,26.5,29.88,West,270,1.1,2.5,79,0.00,,,0.00,WUHU216HW,2013-04-16 09:00:00,
2013-04-16 04:05:00,32.4,26.6,29.88,SSW,203,1.6,3.8,79,0.00,,,0.00,WUHU216HW,2013-04-16 09:05:00,
2013-04-16 04:10:00,32.8,27.0,29.89,NW,315,0.2,3.8,79,0.00,,,0.00,WUHU216HW,2013-04-16 09:10:00,
2013-04-16 04:16:00,32.9,27.1,29.88,WSW,248,0.4,2.2,79,0.00,,,0.00,WUHU216HW,2013-04-16 09:16:00,
2013-04-16 04:21:00,32.9,27.5,29.89,NW,315,1.8,3.4,80,0.00,,,0.00,WUHU216HW,2013-04-16 09:21:00,
2013-04-16 04:26:00,33.1,27.3,29.88,NW,315,1.8,5.4,79,0.00,,,0.00,WUHU216HW,2013-04-16 09:26:00,
2013-04-16 04:31:00,33.1,27.0,29.88,SSW,203,2.0,5.4,78,0.00,,,0.00,WUHU216HW,2013-04-16 09:31:00,
2013-04-16 04:36:00,33.1,27.3,29.87,SSW,203,2.9,4.0,79,0.00,,,0.00,WUHU216HW,2013-04-16 09:36:00,
2013-04-16 04:41:00,33.3,27.1,29.87,NW,315,0.4,4.0,78,0.00,,,0.00,WUHU216HW,2013-04-16 09:41:00,
2013-04-16 04:46:00,33.3,27.1,29.88,SW,225,0.4,4.3,78,0.00,,,0.00,WUHU216HW,2013-04-16 09:46:00,
2013-04-16 04:51:00,33.3,27.1,29.88,West,270,0.4,4.3,78,0.00,,,0.00,WUHU216HW,2013-04-16 09:51:00,
2013-04-16 04:56:00,33.3,27.1,29.88,NW,315,2.9,3.6,78,0.00,,,0.00,WUHU216HW,2013-04-16 09:56:00,
2013-04-16 05:01:00,33.5,27.3,29.88,SSW,203,0.4,3.6,78,0.00,,,0.00,WUHU216HW,2013-04-16 10:01:00,
2013-04-16 05:06:00,33.5,27.3,29.89,WNW,293,4.5,4.5,78,0.00,,,0.00,WUHU216HW,2013-04-16 10:06:00,
2013-04-16 05:11:00,33.5,27.3,29.89,ENE,68,2.5,4.9,78,0.00,,,0.00,WUHU216HW,2013-04-16 10:11:00,
2013-04-16 05:16:00,33.5,27.3,29.89,SE,135,4.7,4.9,78,0.00,,,0.00,WUHU216HW,2013-04-16 10:16:00,
2013-04-16 05:21:00,33.5,27.3,29.89,South,180,1.1,6.3,78,0.00,,,0.00,WUHU216HW,2013-04-16 10:21:00,
2013-04-16 05:26:00,33.5,27.6,29.89,ENE,68,1.8,6.3,79,0.00,,,0.00,WUHU216HW,2013-04-16 10:26:00,
2013-04-16 05:31:00,33.5,27.3,29.89,North,0,3.4,5.8,78,0.00,,,0.00,WUHU216HW,2013-04-16 10:31:00,
2013-04-16 05:36:00,33.5,27.6,29.89,WNW,293,3.1,6.7,79,0.00,,,0.00,WUHU216HW,2013-04-16 10:36:00,
2013-04-16 05:41:00,33.5,27.3,29.90,NW,315,0.7,6.7,78,0.00,,,0.00,WUHU216HW,2013-04-16 10:41:00,
2013-04-16 05:46:00,33.5,27.3,29.90,NW,315,1.3,5.1,78,0.00,,,0.00,WUHU216HW,2013-04-16 10:46:00,
2013-04-16 05:51:00,33.5,27.3,29.89,West,270,3.4,3.8,78,0.00,,,0.00,WUHU216HW,2013-04-16 10:51:00,
2013-04-16 05:56:00,33.5,27.3,29.90,NW,315,0.7,4.0,78,0.00,,,0.00,WUHU216HW,2013-04-16 10:56:00,
2013-04-16 06:01:00,33.5,27.3,29.90,NNW,338,1.1,4.0,78,0.00,,,0.00,WUHU216HW,2013-04-16 11:01:00,
2013-04-16 06:06:00,33.5,27.3,29.90,SSW,203,1.8,2.0,78,0.00,,,0.00,WUHU216HW,2013-04-16 11:06:00,
2013-04-16 06:11:00,33.5,27.3,29.90,NW,315,1.1,2.2,78,0.00,,,0.00,WUHU216HW,2013-04-16 11:11:00,
2013-04-16 06:17:00,33.5,27.3,29.91,SE,135,1.3,4.0,78,0.00,,,0.00,WUHU216HW,2013-04-16 11:17:00,
2013-04-16 06:22:00,33.5,27.3,29.91,North,0,4.5,5.8,78,0.00,,,0.00,WUHU216HW,2013-04-16 11:22:00,
2013-04-16 06:27:00,33.5,27.3,29.91,SE,135,3.8,5.8,78,0.00,,,0.00,WUHU216HW,2013-04-16 11:27:00,
2013-04-16 06:32:00,33.5,27.3,29.92,North,0,4.3,4.5,78,0.00,,,0.00,WUHU216HW,2013-04-16 11:32:00,
2013-04-16 06:37:00,33.5,27.6,29.93,ENE,68,5.6,5.6,79,0.00,,,0.00,WUHU216HW,2013-04-16 11:37:00,
2013-04-16 06:42:00,33.5,27.3,29.93,SW,225,2.0,5.6,78,0.00,,,0.00,WUHU216HW,2013-04-16 11:42:00,
2013-04-16 06:47:00,33.5,27.3,29.93,SW,225,2.7,5.6,78,0.00,,,0.00,WUHU216HW,2013-04-16 11:47:00,
2013-04-16 06:52:00,33.5,27.3,29.94,SSE,158,4.0,5.1,78,0.00,,,0.00,WUHU216HW,2013-04-16 11:52:00,
2013-04-16 06:57:00,33.7,27.8,29.95,South,180,3.4,5.4,79,0.00,,,0.00,WUHU216HW,2013-04-16 11:57:00,
2013-04-16 07:02:00,33.5,27.3,29.95,South,180,3.4,6.3,78,0.00,,,0.00,WUHU216HW,2013-04-16 12:02:00,
2013-04-16 07:07:00,33.7,27.5,29.95,NNW,338,4.7,6.3,78,0.00,,,0.00,WUHU216HW,2013-04-16 12:07:00,
2013-04-16 07:12:00,33.7,27.8,29.95,NW,315,4.5,5.4,79,0.00,,,0.00,WUHU216HW,2013-04-16 12:12:00,
2013-04-16 07:17:00,33.7,27.8,29.96,NW,315,4.9,5.4,79,0.00,,,0.00,WUHU216HW,2013-04-16 12:17:00,
2013-04-16 07:22:00,33.8,27.6,29.96,WNW,293,1.3,5.4,78,0.00,,,0.00,WUHU216HW,2013-04-16 12:22:00,
2013-04-16 07:27:00,33.8,27.6,29.96,NNW,338,5.1,5.4,78,0.00,,,0.00,WUHU216HW,2013-04-16 12:27:00,
2013-04-16 07:32:00,34.0,27.8,29.96,North,0,2.2,5.1,78,0.00,,,0.00,WUHU216HW,2013-04-16 12:32:00,
2013-04-16 07:37:00,34.0,28.1,29.96,NNW,338,3.1,4.9,79,0.00,,,0.00,WUHU216HW,2013-04-16 12:37:00,
2013-04-16 07:42:00,34.0,27.8,29.97,NW,315,1.1,4.9,78,0.00,,,0.00,WUHU216HW,2013-04-16 12:42:00,
2013-04-16 07:47:00,34.2,28.0,29.97,NW,315,4.3,4.7,78,0.00,,,0.00,WUHU216HW,2013-04-16 12:47:00,
2013-04-16 07:52:00,34.2,28.0,29.97,ESE,113,2.5,4.7,78,0.00,,,0.00,WUHU216HW,2013-04-16 12:52:00,
2013-04-16 07:57:00,34.2,28.0,29.98,ESE,113,0.4,4.3,78,0.00,,,0.00,WUHU216HW,2013-04-16 12:57:00,
2013-04-16 08:02:00,34.4,28.2,29.98,North,0,3.6,5.4,78,0.00,,,0.00,WUHU216HW,2013-04-16 13:02:00,
2013-04-16 08:07:00,34.4,28.2,29.98,NNW,338,1.8,5.4,78,0.00,,,0.00,WUHU216HW,2013-04-16 13:07:00,
2013-04-16 08:12:00,34.4,28.2,29.98,SSE,158,2.5,6.3,78,0.00,,,0.00,WUHU216HW,2013-04-16 13:12:00,
2013-04-16 08:17:00,34.6,28.4,29.98,ENE,68,2.0,6.3,78,0.00,,,0.00,WUHU216HW,2013-04-16 13:17:00,
2013-04-16 08:22:00,34.7,28.2,29.99,NNW,338,0.7,4.0,77,0.00,,,0.00,WUHU216HW,2013-04-16 13:22:00,
2013-04-16 08:27:00,34.9,28.4,29.99,NW,315,3.6,3.8,77,0.00,,,0.00,WUHU216HW,2013-04-16 13:27:00,
2013-04-16 08:32:00,34.9,28.1,29.99,NNW,338,2.5,5.8,76,0.00,,,0.00,WUHU216HW,2013-04-16 13:32:00,
2013-04-16 08:37:00,34.9,28.1,29.99,West,270,4.3,5.8,76,0.00,,,0.00,WUHU216HW,2013-04-16 13:37:00,
2013-04-16 08:42:00,35.1,28.3,29.99,WNW,293,3.8,5.8,76,0.00,,,0.00,WUHU216HW,2013-04-16 13:42:00,
2013-04-16 08:47:00,35.1,28.3,29.99,SW,225,2.9,5.4,76,0.00,,,0.00,WUHU216HW,2013-04-16 13:47:00,
2013-04-16 08:52:00,35.3,28.5,29.99,East,90,4.7,6.9,76,0.00,,,0.00,WUHU216HW,2013-04-16 13:52:00,
2013-04-16 08:57:00,35.5,28.6,30.00,South,180,3.4,6.9,76,0.00,,,0.00,WUHU216HW,2013-04-16 13:57:00,
2013-04-16 09:02:00,35.6,28.8,30.00,NW,315,3.4,5.4,76,0.00,,,0.00,WUHU216HW,2013-04-16 14:02:00,
2013-04-16 09:07:00,36.0,29.8,30.00,NNE,23,4.0,5.4,78,0.00,,,0.00,WUHU216HW,2013-04-16 14:07:00,
2013-04-16 09:12:00,36.4,29.8,30.00,SE,135,4.7,5.4,77,0.00,,,0.00,WUHU216HW,2013-04-16 14:12:00,
2013-04-16 09:17:00,36.5,30.3,30.00,West,270,3.8,6.9,78,0.00,,,0.00,WUHU216HW,2013-04-16 14:17:00,
2013-04-16 09:22:00,37.1,31.5,30.00,NE,45,5.1,6.9,80,0.00,,,0.00,WUHU216HW,2013-04-16 14:22:00,
2013-04-16 09:27:00,37.3,30.4,30.00,ESE,113,6.9,6.9,76,0.00,,,0.00,WUHU216HW,2013-04-16 14:27:00,
2013-04-16 09:32:00,37.3,30.4,30.01,NW,315,2.9,6.9,76,0.00,,,0.00,WUHU216HW,2013-04-16 14:32:00,
2013-04-16 09:37:00,37.6,30.8,30.00,SE,135,3.4,6.9,76,0.00,,,0.00,WUHU216HW,2013-04-16 14:37:00,
2013-04-16 09:42:00,38.2,31.2,30.00,WNW,293,5.1,6.9,76,0.00,,,0.00,WUHU216HW,2013-04-16 14:42:00,
2013-04-16 09:47:00,38.3,29.8,30.01,NE,45,4.0,6.7,71,0.00,,,0.00,WUHU216HW,2013-04-16 14:47:00,
2013-04-16 09:52:00,37.8,29.3,30.02,NW,315,5.1,6.7,71,0.00,,,0.00,WUHU216HW,2013-04-16 14:52:00,
2013-04-16 09:57:00,37.8,29.3,30.02,South,180,4.0,6.0,71,0.00,,,0.00,WUHU216HW,2013-04-16 14:57:00,
2013-04-16 10:02:00,38.0,29.8,30.03,SE,135,5.8,6.0,72,0.00,,,0.00,WUHU216HW,2013-04-16 15:02:00,
2013-04-16 10:07:00,38.2,29.6,30.02,NE,45,3.4,6.0,71,0.00,,,0.00,WUHU216HW,2013-04-16 15:07:00,
2013-04-16 10:12:00,38.5,30.0,30.03,ESE,113,5.8,5.8,71,0.00,,,0.00,WUHU216HW,2013-04-16 15:12:00,
2013-04-16 10:17:00,38.7,29.8,30.02,SSE,158,4.9,6.9,70,0.00,,,0.00,WUHU216HW,2013-04-16 15:17:00,
2013-04-16 10:22:00,39.1,30.4,30.02,ESE,113,1.6,6.9,71,0.00,,,0.00,WUHU216HW,2013-04-16 15:22:00,
2013-04-16 10:27:00,39.1,29.4,30.03,ESE,113,4.7,8.1,68,0.00,,,0.00,WUHU216HW,2013-04-16 15:27:00,
2013-04-16 10:32:00,38.9,29.5,30.02,SSE,158,2.5,8.1,69,0.00,,,0.00,WUHU216HW,2013-04-16 15:32:00,
2013-04-16 10:37:00,39.2,29.9,30.02,NE,45,6.7,6.7,69,0.00,,,0.00,WUHU216HW,2013-04-16 15:37:00,
2013-04-16 10:42:00,39.4,30.1,30.02,ESE,113,3.6,6.7,69,0.00,,,0.00,WUHU216HW,2013-04-16 15:42:00,
2013-04-16 10:47:00,39.8,30.4,30.03,SW,225,3.1,6.0,69,0.00,,,0.00,WUHU216HW,2013-04-16 15:47:00,
2013-04-16 10:52:00,40.1,30.4,30.03,WNW,293,3.1,6.0,68,0.00,,,0.00,WUHU216HW,2013-04-16 15:52:00,
2013-04-16 10:57:00,40.3,30.2,30.03,North,0,3.8,6.0,67,0.00,,,0.00,WUHU216HW,2013-04-16 15:57:00,
2013-04-16 11:02:00,40.3,30.2,30.04,NW,315,2.9,6.3,67,0.00,,,0.00,WUHU216HW,2013-04-16 16:02:00,
2013-04-16 11:07:00,40.5,30.3,30.04,SSW,203,3.6,6.3,67,0.00,,,0.00,WUHU216HW,2013-04-16 16:07:00,
2013-04-16 11:12:00,40.7,30.5,30.04,ENE,68,4.0,5.4,67,0.00,,,0.00,WUHU216HW,2013-04-16 16:12:00,
2013-04-16 11:17:00,41.0,30.9,30.04,NE,45,5.4,5.4,67,0.00,,,0.00,WUHU216HW,2013-04-16 16:17:00,
2013-04-16 11:22:00,41.4,31.2,30.04,WSW,248,1.8,5.4,67,0.00,,,0.00,WUHU216HW,2013-04-16 16:22:00,
2013-04-16 11:27:00,41.9,31.8,30.04,SSW,203,4.7,5.6,67,0.00,,,0.00,WUHU216HW,2013-04-16 16:27:00,
2013-04-16 11:32:00,42.1,31.6,30.04,WNW,293,1.3,5.6,66,0.00,,,0.00,WUHU216HW,2013-04-16 16:32:00,
2013-04-16 11:37:00,42.7,31.7,30.05,WSW,248,5.4,5.4,65,0.00,,,0.00,WUHU216HW,2013-04-16 16:37:00,
2013-04-16 11:42:00,43.2,32.2,30.05,SW,225,2.2,5.4,65,0.00,,,0.00,WUHU216HW,2013-04-16 16:42:00,
2013-04-16 11:47:00,43.4,32.4,30.05,WNW,293,0.4,4.0,65,0.00,,,0.00,WUHU216HW,2013-04-16 16:47:00,
2013-04-16 11:52:00,44.3,32.9,30.05,WSW,248,2.9,6.3,64,0.00,,,0.00,WUHU216HW,2013-04-16 16:52:00,
2013-04-16 11:57:00,44.8,32.9,30.06,NE,45,0.4,6.7,63,0.00,,,0.00,WUHU216HW,2013-04-16 16:57:00,
2013-04-16 12:02:00,45.7,33.4,30.05,North,0,6.3,6.7,62,0.00,,,0.00,WUHU216HW,2013-04-16 17:02:00,
2013-04-16 12:07:00,46.4,32.9,30.06,South,180,5.8,6.3,59,0.00,,,0.00,WUHU216HW,2013-04-16 17:07:00,
2013-04-16 12:12:00,47.3,34.2,30.06,SE,135,3.1,5.8,60,0.00,,,0.00,WUHU216HW,2013-04-16 17:12:00,
2013-04-16 12:17:00,48.6,34.0,30.06,NW,315,1.1,4.9,57,0.00,,,0.00,WUHU216HW,2013-04-16 17:17:00,
2013-04-16 12:22:00,47.3,32.9,30.07,North,0,4.5,4.5,57,0.00,,,0.00,WUHU216HW,2013-04-16 17:22:00,
2013-04-16 12:27:00,47.3,32.9,30.07,South,180,5.4,5.4,57,0.00,,,0.00,WUHU216HW,2013-04-16 17:27:00,
2013-04-16 12:32:00,47.7,32.7,30.07,NNW,338,3.4,6.9,56,0.00,,,0.00,WUHU216HW,2013-04-16 17:32:00,
2013-04-16 12:37:00,48.6,34.5,30.07,SSW,203,3.1,6.9,58,0.00,,,0.00,WUHU216HW,2013-04-16 17:37:00,
2013-04-16 12:42:00,49.3,34.2,30.07,SW,225,5.1,6.5,56,0.00,,,0.00,WUHU216HW,2013-04-16 17:42:00,
2013-04-16 12:47:00,49.0,33.5,30.07,WNW,293,2.0,5.1,55,0.00,,,0.00,WUHU216HW,2013-04-16 17:47:00,
2013-04-16 12:52:00,48.4,32.5,30.07,SE,135,2.2,6.5,54,0.00,,,0.00,WUHU216HW,2013-04-16 17:52:00,
2013-04-16 12:57:00,49.5,32.6,30.06,North,0,0.2,6.9,52,0.00,,,0.00,WUHU216HW,2013-04-16 17:57:00,
2013-04-16 13:02:00,50.8,33.8,30.06,SE,135,3.6,6.9,52,0.00,,,0.00,WUHU216HW,2013-04-16 18:02:00,
2013-04-16 13:07:00,52.6,35.4,30.06,South,180,5.4,7.2,52,0.00,,,0.00,WUHU216HW,2013-04-16 18:07:00,
2013-04-16 13:12:00,54.0,35.8,30.07,North,0,3.6,7.2,50,0.00,,,0.00,WUHU216HW,2013-04-16 18:12:00,
2013-04-16 13:17:00,54.7,35.9,30.06,SW,225,0.4,6.9,49,0.00,,,0.00,WUHU216HW,2013-04-16 18:17:00,
2013-04-16 13:22:00,55.8,36.9,30.06,SSE,158,5.1,6.9,49,0.00,,,0.00,WUHU216HW,2013-04-16 18:22:00,
2013-04-16 13:27:00,55.1,33.9,30.06,NNW,338,2.9,6.7,45,0.00,,,0.00,WUHU216HW,2013-04-16 18:27:00,
2013-04-16 13:32:00,55.4,34.3,30.06,North,0,4.7,6.7,45,0.00,,,0.00,WUHU216HW,2013-04-16 18:32:00,
2013-04-16 13:37:00,56.2,35.6,30.06,SW,225,1.1,7.2,46,0.00,,,0.00,WUHU216HW,2013-04-16 18:37:00,
2013-04-16 13:42:00,55.8,34.1,30.06,North,0,6.9,7.2,44,0.00,,,0.00,WUHU216HW,2013-04-16 18:42:00,
2013-04-16 13:47:00,56.3,35.7,30.06,NNW,338,3.4,6.9,46,0.00,,,0.00,WUHU216HW,2013-04-16 18:47:00,
2013-04-16 13:52:00,57.2,36.0,30.06,SW,225,4.0,6.3,45,0.00,,,0.00,WUHU216HW,2013-04-16 18:52:00,
2013-04-16 13:57:00,58.5,37.2,30.06,North,0,0.0,5.4,45,0.00,,,0.00,WUHU216HW,2013-04-16 18:57:00,
2013-04-16 14:02:00,59.6,35.8,30.06,North,0,6.7,6.7,41,0.00,,,0.00,WUHU216HW,2013-04-16 19:02:00,
2013-04-16 14:07:00,59.0,34.7,30.06,WNW,293,0.7,6.7,40,0.00,,,0.00,WUHU216HW,2013-04-16 19:07:00,
2013-04-16 14:12:00,59.2,36.6,30.07,SSE,158,2.5,6.7,43,0.00,,,0.00,WUHU216HW,2013-04-16 19:12:00,
2013-04-16 14:17:00,59.8,36.0,30.07,SE,135,2.0,4.9,41,0.00,,,0.00,WUHU216HW,2013-04-16 19:17:00,
2013-04-16 14:22:00,60.3,36.5,30.07,West,270,4.7,5.6,41,0.00,,,0.00,WUHU216HW,2013-04-16 19:22:00,
2013-04-16 14:27:00,60.3,35.2,30.07,WNW,293,0.4,6.0,39,0.00,,,0.00,WUHU216HW,2013-04-16 19:27:00,
2013-04-16 14:32:00,60.8,36.9,30.07,SW,225,5.6,6.0,41,0.00,,,0.00,WUHU216HW,2013-04-16 19:32:00,
2013-04-16 14:37:00,61.7,36.5,30.07,North,0,1.8,5.6,39,0.00,,,0.00,WUHU216HW,2013-04-16 19:37:00,
2013-04-16 14:42:00,62.5,37.1,30.07,North,0,1.1,4.7,39,0.00,,,0.00,WUHU216HW,2013-04-16 19:42:00,
2013-04-16 14:47:00,63.0,36.9,30.07,North,0,0.2,4.3,38,0.00,,,0.00,WUHU216HW,2013-04-16 19:47:00,
2013-04-16 14:52:00,64.6,36.9,30.06,South,180,3.1,3.8,36,0.00,,,0.00,WUHU216HW,2013-04-16 19:52:00,
2013-04-16 14:57:00,63.7,34.7,30.06,SE,135,2.0,5.4,34,0.00,,,0.00,WUHU216HW,2013-04-16 19:57:00,
2013-04-16 15:02:00,63.4,36.5,30.06,NW,315,2.5,5.4,37,0.00,,,0.00,WUHU216HW,2013-04-16 20:02:00,
2013-04-16 15:07:00,64.1,36.4,30.06,North,0,4.3,7.6,36,0.00,,,0.00,WUHU216HW,2013-04-16 20:07:00,
2013-04-16 15:12:00,64.8,37.1,30.06,North,0,1.8,7.6,36,0.00,,,0.00,WUHU216HW,2013-04-16 20:12:00,
2013-04-16 15:17:00,67.0,37.5,30.06,North,0,2.2,2.2,34,0.00,,,0.00,WUHU216HW,2013-04-16 20:17:00,
2013-04-16 15:22:00,67.3,36.4,30.06,SSE,158,3.1,5.1,32,0.00,,,0.00,WUHU216HW,2013-04-16 20:22:00,
2013-04-16 15:27:00,66.8,37.4,30.06,North,0,1.6,5.1,34,0.00,,,0.00,WUHU216HW,2013-04-16 20:27:00,
2013-04-16 15:32:00,66.6,37.2,30.06,North,0,2.9,6.3,34,0.00,,,0.00,WUHU216HW,2013-04-16 20:32:00,
2013-04-16 15:37:00,66.2,36.2,30.06,NNE,23,0.4,6.3,33,0.00,,,0.00,WUHU216HW,2013-04-16 20:37:00,
2013-04-16 15:42:00,67.1,36.9,30.06,ESE,113,4.7,4.7,33,0.00,,,0.00,WUHU216HW,2013-04-16 20:42:00,
2013-04-16 15:47:00,66.1,35.3,30.06,NNE,23,4.7,6.0,32,0.00,,,0.00,WUHU216HW,2013-04-16 20:47:00,
2013-04-16 15:52:00,65.2,35.2,30.06,SE,135,3.4,6.3,33,0.00,,,0.00,WUHU216HW,2013-04-16 20:52:00,
2013-04-16 15:57:00,65.7,35.7,30.06,North,0,4.9,6.3,33,0.00,,,0.00,WUHU216HW,2013-04-16 20:57:00,
2013-04-16 16:02:00,66.2,36.2,30.06,North,0,2.2,5.4,33,0.00,,,0.00,WUHU216HW,2013-04-16 21:02:00,
2013-04-16 16:07:00,65.9,35.1,30.06,WSW,248,5.1,5.6,32,0.00,,,0.00,WUHU216HW,2013-04-16 21:07:00,
2013-04-16 16:12:00,65.9,35.1,30.06,NE,45,3.1,6.3,32,0.00,,,0.00,WUHU216HW,2013-04-16 21:12:00,
2013-04-16 16:17:00,67.0,36.8,30.06,South,180,0.4,6.3,33,0.00,,,0.00,WUHU216HW,2013-04-16 21:17:00,
2013-04-16 16:22:00,67.9,36.8,30.06,North,0,2.5,3.4,32,0.00,,,0.00,WUHU216HW,2013-04-16 21:22:00,
2013-04-16 16:27:00,68.0,36.2,30.06,NNW,338,1.1,5.8,31,0.00,,,0.00,WUHU216HW,2013-04-16 21:27:00,
2013-04-16 16:32:00,68.2,36.4,30.06,North,0,1.8,5.8,31,0.00,,,0.00,WUHU216HW,2013-04-16 21:32:00,
2013-04-16 16:37:00,68.0,36.9,30.07,NNE,23,0.2,2.5,32,0.00,,,0.00,WUHU216HW,2013-04-16 21:37:00,
2013-04-16 16:42:00,67.7,35.2,30.07,South,180,3.6,3.6,30,0.00,,,0.00,WUHU216HW,2013-04-16 21:42:00,
2013-04-16 16:47:00,67.5,35.7,30.07,NW,315,2.9,5.4,31,0.00,,,0.00,WUHU216HW,2013-04-16 21:47:00,
2013-04-16 16:52:00,68.4,36.6,30.07,South,180,0.2,5.4,31,0.00,,,0.00,WUHU216HW,2013-04-16 21:52:00,
2013-04-16 16:57:00,70.2,38.2,30.07,SE,135,1.8,5.1,31,0.00,,,0.00,WUHU216HW,2013-04-16 21:57:00,
2013-04-16 17:02:00,70.9,37.0,30.07,North,0,1.8,4.0,29,0.00,,,0.00,WUHU216HW,2013-04-16 22:02:00,
2013-04-16 17:07:00,70.7,36.9,30.07,North,0,0.9,2.7,29,0.00,,,0.00,WUHU216HW,2013-04-16 22:07:00,
2013-04-16 17:12:00,70.0,36.3,30.07,North,0,3.6,3.6,29,0.00,,,0.00,WUHU216HW,2013-04-16 22:12:00,
2013-04-16 17:17:00,68.8,35.1,30.07,North,0,0.7,3.6,29,0.00,,,0.00,WUHU216HW,2013-04-16 22:17:00,
2013-04-16 17:22:00,68.6,35.9,30.07,North,0,0.7,1.8,30,0.00,,,0.00,WUHU216HW,2013-04-16 22:22:00,
2013-04-16 17:27:00,68.6,35.9,30.07,North,0,1.8,2.5,30,0.00,,,0.00,WUHU216HW,2013-04-16 22:27:00,
2013-04-16 17:32:00,67.7,35.2,30.07,NNE,23,0.4,3.8,30,0.00,,,0.00,WUHU216HW,2013-04-16 22:32:00,
2013-04-16 17:37:00,67.3,36.4,30.07,NNW,338,0.4,3.8,32,0.00,,,0.00,WUHU216HW,2013-04-16 22:37:00,
2013-04-16 17:42:00,67.3,35.7,30.07,North,0,2.2,3.6,31,0.00,,,0.00,WUHU216HW,2013-04-16 22:42:00,
2013-04-16 17:47:00,66.8,34.5,30.07,North,0,1.8,4.7,30,0.00,,,0.00,WUHU216HW,2013-04-16 22:47:00,
2013-04-16 17:52:00,65.5,34.1,30.07,North,0,1.8,4.7,31,0.00,,,0.00,WUHU216HW,2013-04-16 22:52:00,
2013-04-16 17:57:00,65.3,33.9,30.07,North,0,0.2,4.0,31,0.00,,,0.00,WUHU216HW,2013-04-16 22:57:00,
2013-04-16 18:02:00,66.1,35.3,30.07,North,0,0.7,2.9,32,0.00,,,0.00,WUHU216HW,2013-04-16 23:02:00,
2013-04-16 18:07:00,65.7,33.6,30.07,NNE,23,1.3,1.3,30,0.00,,,0.00,WUHU216HW,2013-04-16 23:07:00,
2013-04-16 18:12:00,65.2,33.0,30.08,North,0,0.9,1.6,30,0.00,,,0.00,WUHU216HW,2013-04-16 23:12:00,
2013-04-16 18:17:00,64.8,33.5,30.08,North,0,0.7,2.7,31,0.00,,,0.00,WUHU216HW,2013-04-16 23:17:00,
2013-04-16 18:22:00,64.4,33.1,30.08,North,0,1.1,2.7,31,0.00,,,0.00,WUHU216HW,2013-04-16 23:22:00,
2013-04-16 18:27:00,63.7,32.5,30.08,North,0,0.9,1.8,31,0.00,,,0.00,WUHU216HW,2013-04-16 23:27:00,
2013-04-16 18:32:00,63.0,31.9,30.08,North,0,0.7,1.8,31,0.00,,,0.00,WUHU216HW,2013-04-16 23:32:00,
2013-04-16 18:37:00,62.3,31.9,30.08,NNE,23,0.4,1.8,32,0.00,,,0.00,WUHU216HW,2013-04-16 23:37:00,
2013-04-16 18:42:00,61.7,31.4,30.08,North,0,0.4,2.0,32,0.00,,,0.00,WUHU216HW,2013-04-16 23:42:00,
2013-04-16 18:47:00,61.2,31.0,30.09,NNE,23,0.4,2.0,32,0.00,,,0.00,WUHU216HW,2013-04-16 23:47:00,
2013-04-16 18:52:00,60.7,31.1,30.09,North,0,0.7,1.8,33,0.00,,,0.00,WUHU216HW,2013-04-16 23:52:00,
2013-04-16 18:57:00,60.3,30.9,30.09,North,0,0.4,1.8,33,0.00,,,0.00,WUHU216HW,2013-04-16 23:57:00,
2013-04-16 19:02:00,59.4,30.9,30.09,North,0,0.4,1.8,34,0.00,,,0.00,WUHU216HW,2013-04-17 00:02:00,
2013-04-16 19:07:00,58.5,30.8,30.09,North,0,0.7,2.2,35,0.00,,,0.00,WUHU216HW,2013-04-17 00:07:00,
2013-04-16 19:12:00,58.0,31.0,30.09,North,0,0.7,2.2,36,0.00,,,0.00,WUHU216HW,2013-04-17 00:12:00,
2013-04-16 19:17:00,57.1,30.9,30.09,North,0,0.0,1.6,37,0.00,,,0.00,WUHU216HW,2013-04-17 00:17:00,
2013-04-16 19:22:00,56.2,30.1,30.09,North,0,0.4,1.1,37,0.00,,,0.00,WUHU216HW,2013-04-17 00:22:00,
2013-04-16 19:27:00,54.5,29.4,30.10,North,0,0.0,0.9,38,0.00,,,0.00,WUHU216HW,2013-04-17 00:27:00,
2013-04-16 19:32:00,52.9,27.9,30.09,North,0,0.2,0.9,38,0.00,,,0.00,WUHU216HW,2013-04-17 00:32:00,
2013-04-16 19:37:00,50.9,27.5,30.10,North,0,0.2,0.9,40,0.00,,,0.00,WUHU216HW,2013-04-17 00:37:00,
2013-04-16 19:42:00,49.7,26.3,30.10,NNE,23,0.0,0.7,40,0.00,,,0.00,WUHU216HW,2013-04-17 00:42:00,
2013-04-16 19:47:00,48.6,26.5,30.10,NNE,23,0.4,0.7,42,0.00,,,0.00,WUHU216HW,2013-04-17 00:47:00,
2013-04-16 19:52:00,47.5,26.0,30.10,North,0,0.2,0.7,43,0.00,,,0.00,WUHU216HW,2013-04-17 00:52:00,
2013-04-16 19:57:00,46.6,25.8,30.10,North,0,0.0,0.4,44,0.00,,,0.00,WUHU216HW,2013-04-17 00:57:00,
2013-04-16 20:02:00,45.9,25.7,30.10,North,0,0.2,0.2,45,0.00,,,0.00,WUHU216HW,2013-04-17 01:02:00,
2013-04-16 20:07:00,45.2,24.9,30.10,North,0,0.0,0.2,45,0.00,,,0.00,WUHU216HW,2013-04-17 01:07:00,
2013-04-16 20:12:00,44.6,25.0,30.10,North,0,0.4,0.4,46,0.00,,,0.00,WUHU216HW,2013-04-17 01:12:00,
2013-04-16 20:17:00,43.9,24.9,30.10,North,0,0.0,0.4,47,0.00,,,0.00,WUHU216HW,2013-04-17 01:17:00,
2013-04-16 20:22:00,43.6,25.1,30.10,North,0,0.7,0.7,48,0.00,,,0.00,WUHU216HW,2013-04-17 01:22:00,
2013-04-16 20:27:00,43.0,25.2,30.10,North,0,0.7,0.7,49,0.00,,,0.00,WUHU216HW,2013-04-17 01:27:00,
2013-04-16 20:32:00,42.5,25.2,30.11,North,0,0.4,1.1,50,0.00,,,0.00,WUHU216HW,2013-04-17 01:32:00,
2013-04-16 20:37:00,42.1,24.3,30.11,North,0,0.0,1.1,49,0.00,,,0.00,WUHU216HW,2013-04-17 01:37:00,
2013-04-16 20:42:00,41.6,24.8,30.11,North,0,0.7,0.7,51,0.00,,,0.00,WUHU216HW,2013-04-17 01:42:00,
2013-04-16 20:47:00,41.6,27.9,30.11,North,0,0.4,0.9,58,0.00,,,0.00,WUHU216HW,2013-04-17 01:47:00,
2013-04-16 20:52:00,42.1,30.0,30.12,North,0,0.4,0.9,62,0.00,,,0.00,WUHU216HW,2013-04-17 01:52:00,
2013-04-16 20:57:00,41.9,28.6,30.12,North,0,0.0,0.7,59,0.00,,,0.00,WUHU216HW,2013-04-17 01:57:00,
2013-04-16 21:02:00,41.4,27.7,30.13,North,0,0.0,0.4,58,0.00,,,0.00,WUHU216HW,2013-04-17 02:02:00,
2013-04-16 21:07:00,40.7,26.6,30.13,North,0,0.0,0.4,57,0.00,,,0.00,WUHU216HW,2013-04-17 02:07:00,
2013-04-16 21:12:00,40.0,25.8,30.13,NNW,338,0.2,0.4,57,0.00,,,0.00,WUHU216HW,2013-04-17 02:12:00,
2013-04-16 21:17:00,39.4,25.4,30.13,NNW,338,0.0,0.2,57,0.00,,,0.00,WUHU216HW,2013-04-17 02:17:00,
2013-04-16 21:22:00,39.1,25.0,30.13,NNW,338,0.4,0.4,57,0.00,,,0.00,WUHU216HW,2013-04-17 02:22:00,
2013-04-16 21:27:00,38.5,24.9,30.14,NW,315,0.4,0.9,58,0.00,,,0.00,WUHU216HW,2013-04-17 02:27:00,
2013-04-16 21:32:00,38.5,25.4,30.14,NW,315,0.7,0.9,59,0.00,,,0.00,WUHU216HW,2013-04-17 02:32:00,
2013-04-16 21:37:00,38.3,25.2,30.14,NW,315,0.0,0.7,59,0.00,,,0.00,WUHU216HW,2013-04-17 02:37:00,
2013-04-16 21:42:00,38.0,24.9,30.14,NW,315,0.0,0.7,59,0.00,,,0.00,WUHU216HW,2013-04-17 02:42:00,
2013-04-16 21:47:00,37.8,24.8,30.14,NW,315,0.0,0.4,59,0.00,,,0.00,WUHU216HW,2013-04-17 02:47:00,
2013-04-16 21:52:00,37.4,24.8,30.14,WNW,293,0.7,0.7,60,0.00,,,0.00,WUHU216HW,2013-04-17 02:52:00,
2013-04-16 21:57:00,37.3,24.7,30.14,NW,315,0.4,0.7,60,0.00,,,0.00,WUHU216HW,2013-04-17 02:57:00,
2013-04-16 22:02:00,37.1,24.5,30.14,NW,315,0.0,0.7,60,0.00,,,0.00,WUHU216HW,2013-04-17 03:02:00,
2013-04-16 22:07:00,36.9,24.4,30.14,NW,315,0.0,0.2,60,0.00,,,0.00,WUHU216HW,2013-04-17 03:07:00,
2013-04-16 22:12:00,36.4,23.9,30.14,NW,315,0.0,0.4,60,0.00,,,0.00,WUHU216HW,2013-04-17 03:12:00,
2013-04-16 22:17:00,36.2,23.7,30.14,NW,315,0.0,0.4,60,0.00,,,0.00,WUHU216HW,2013-04-17 03:17:00,
2013-04-16 22:22:00,36.0,23.6,30.14,NW,315,0.2,0.2,60,0.00,,,0.00,WUHU216HW,2013-04-17 03:22:00,
2013-04-16 22:27:00,35.8,23.8,30.14,NW,315,0.4,0.4,61,0.00,,,0.00,WUHU216HW,2013-04-17 03:27:00,
2013-04-16 22:32:00,35.6,23.6,30.15,NW,315,0.0,0.4,61,0.00,,,0.00,WUHU216HW,2013-04-17 03:32:00,
2013-04-16 22:37:00,35.3,23.6,30.15,NW,315,0.9,0.9,62,0.00,,,0.00,WUHU216HW,2013-04-17 03:37:00,
2013-04-16 22:42:00,35.3,23.6,30.15,NW,315,0.4,1.3,62,0.00,,,0.00,WUHU216HW,2013-04-17 03:42:00,
2013-04-16 22:47:00,35.1,23.4,30.15,NW,315,0.2,1.3,62,0.00,,,0.00,WUHU216HW,2013-04-17 03:47:00,
2013-04-16 22:52:00,35.3,24.3,30.15,NW,315,0.4,1.1,64,0.00,,,0.00,WUHU216HW,2013-04-17 03:52:00,
2013-04-16 22:57:00,35.5,24.8,30.15,NW,315,0.7,1.1,65,0.00,,,0.00,WUHU216HW,2013-04-17 03:57:00,
2013-04-16 23:00:00,35.6,25.0,30.15,NW,315,1.8,2.0,65,0.00,,,0.00,WUHU216HW,2013-04-17 04:00:00,
2013-04-16 23:05:00,36.0,25.0,30.16,NW,315,0.9,2.0,64,0.00,,,0.00,WUHU216HW,2013-04-17 04:05:00,
2013-04-16 23:10:00,35.8,24.9,30.15,NW,315,0.7,1.1,64,0.00,,,0.00,WUHU216HW,2013-04-17 04:10:00,
2013-04-16 23:15:00,35.6,24.3,30.16,NW,315,0.0,1.1,63,0.00,,,0.00,WUHU216HW,2013-04-17 04:15:00,
2013-04-16 23:20:00,35.3,23.9,30.16,NW,315,0.0,1.1,63,0.00,,,0.00,WUHU216HW,2013-04-17 04:20:00,
2013-04-16 23:25:00,34.9,23.6,30.16,NW,315,0.0,0.4,63,0.00,,,0.00,WUHU216HW,2013-04-17 04:25:00,
2013-04-16 23:30:00,34.6,23.2,30.16,NW,315,0.4,0.4,63,0.00,,,0.00,WUHU216HW,2013-04-17 04:30:00,
2013-04-16 23:35:00,34.2,23.2,30.16,NW,315,0.0,0.4,64,0.00,,,0.00,WUHU216HW,2013-04-17 04:35:00,
2013-04-16 23:40:00,33.8,22.9,30.16,NW,315,0.0,0.2,64,0.00,,,0.00,WUHU216HW,2013-04-17 04:40:00,
2013-04-16 23:45:00,33.5,22.9,30.16,NW,315,0.4,0.4,65,0.00,,,0.00,WUHU216HW,2013-04-17 04:45:00,
2013-04-16 23:50:00,33.3,22.8,30.16,NW,315,0.0,0.4,65,0.00,,,0.00,WUHU216HW,2013-04-17 04:50:00,
2013-04-16 23:55:00,33.3,23.1,30.16,NW,315,0.0,0.4,66,0.00,,,0.00,WUHU216HW,2013-04-17 04:55:00,